QPF
0.00 0.00 0.02 0.05 0.06 0.05 0.04 0.05 0.03 0.02 0.01 0.01 0.01 0.01 0.02 0.01 0.01 0.01 0.01 0.01 0.01 0.01 0.01 0.01 0.01 0.01 0.00 0.00 0.01 0.01 0.01 0.01 0.01 0.02 0.02 0.01 0.01 0.01 0.01 0.01 0.01 0.01 0.01
0.00 0.01 0.02 0.03 0.04 0.04 0.04 0.04 0.03 0.03 0.02 0.01 0.01 0.01 0.01 0.01 0.01 0.01 0.01 0.01 0.01 0.01 0.01 0.02 0.02 0.01 0.01 0.01 0.00 0.00 0.00 0.00 0.00 0.00 0.00 0.00 0.00 0.01 0.00 0.00 0.00 0.01 0.01
0.00 0.01 0.01 0.02 0.03 0.03 0.04 0.03 0.03 0.03 0.03 0.03 0.03 0.02 0.01 0.00 0.00 0.01 0.01 0.01 0.01 0.01 0.02 0.02 0.02 0.01 0.01 0.01 0.00 0.00 0.00 0.00 0.00 0.00 0.00 0.00 0.00 0.00 0.00 0.00 0.00 0.00 0.01
0.00 0.01 0.01 0.02 0.03 0.03 0.04 0.04 0.04 0.03 0.03 0.03 0.03 0.02 0.02 0.01 0.01 0.01 0.01 0.01 0.01 0.02 0.02 0.02 0.02 0.01 0.01 0.01 0.00 0.00 0.00 0.00 0.00 0.00 0.00 0.00 0.00 0.00 0.00 0.00 0.01 0.01 0.01
0.01 0.01 0.01 0.02 0.03 0.03 0.03 0.03 0.04 0.04 0.04 0.03 0.03 0.03 0.02 0.02 0.02 0.02 0.02 0.02 0.02 0.01 0.02 0.02 0.02 0.02 0.01 0.01 0.00 0.00 0.00 0.00 0.00 0.00 0.00 0.00 0.00 0.00 0.00 0.01 0.01 0.01 0.00
0.01 0.02 0.02 0.02 0.03 0.03 0.04 0.03 0.03 0.04 0.04 0.03 0.03 0.03 0.03 0.03 0.02 0.02 0.02 0.02 0.02 0.01 0.01 0.02 0.02 0.02 0.01 0.01 0.01 0.01 0.00 0.00 0.00 0.00 0.00 0.00 0.00 0.00 0.00 0.01 0.01 0.01 0.00
0.01 0.02 0.01 0.02 0.03 0.03 0.04 0.05 0.04 0.03 0.03 0.03 0.03 0.03 0.03 0.03 0.03 0.02 0.02 0.02 0.02 0.02 0.02 0.02 0.02 0.02 0.02 0.02 0.01 0.01 0.01 0.00 0.00 0.00 0.00 0.00 0.00 0.00 0.00 0.01 0.01 0.01 0.01
0.01 0.02 0.01 0.01 0.02 0.02 0.03 0.04 0.04 0.04 0.03 0.02 0.02 0.03 0.04 0.04 0.04 0.03 0.03 0.02 0.02 0.02 0.02 0.02 0.02 0.02 0.02 0.02 0.02 0.02 0.01 0.01 0.00 0.00 0.00 0.00 0.00 0.00 0.00 0.01 0.01 0.01 0.00
0.01 0.02 0.01 0.01 0.01 0.02 0.02 0.04 0.04 0.04 0.03 0.02 0.02 0.02 0.03 0.04 0.04 0.04 0.03 0.02 0.02 0.02 0.03 0.02 0.02 0.03 0.03 0.03 0.02 0.02 0.02 0.01 0.01 0.01 0.00 0.00 0.00 0.00 0.00 0.00 0.00 0.01 0.00
0.01 0.01 0.01 0.01 0.02 0.02 0.02 0.02 0.03 0.03 0.02 0.02 0.02 0.02 0.02 0.02 0.03 0.03 0.04 0.03 0.02 0.02 0.02 0.02 0.02 0.02 0.03 0.04 0.04 0.02 0.02 0.01 0.01 0.01 0.01 0.00 0.00 0.00 0.00 0.01 0.01 0.01 0.00
0.00 0.00 0.01 0.01 0.01 0.02 0.02 0.02 0.02 0.02 0.02 0.02 0.02 0.02 0.03 0.03 0.03 0.02 0.02 0.03 0.03 0.02 0.02 0.02 0.02 0.02 0.03 0.04 0.05 0.05 0.03 0.02 0.01 0.01 0.00 0.00 0.00 0.00 0.00 0.01 0.01 0.01 0.01
0.00 0.00 0.01 0.01 0.02 0.02 0.03 0.04 0.04 0.03 0.02 0.02 0.02 0.02 0.02 0.03 0.04 0.03 0.02 0.01 0.02 0.02 0.02 0.02 0.02 0.03 0.03 0.04 0.04 0.04 0.04 0.02 0.02 0.01 0.00 0.00 0.00 0.01 0.01 0.01 0.01 0.01 0.01
0.01 0.01 0.01 0.01 0.01 0.02 0.03 0.03 0.04 0.04 0.04 0.02 0.02 0.02 0.02 0.02 0.02 0.03 0.04 0.02 0.01 0.02 0.03 0.02 0.03 0.03 0.03 0.03 0.04 0.04 0.03 0.03 0.02 0.01 0.00 0.00 0.01 0.01 0.01 0.01 0.01 0.01 0.01
0.01 0.01 0.00 0.01 0.01 0.01 0.02 0.02 0.02 0.03 0.03 0.04 0.03 0.02 0.02 0.02 0.02 0.01 0.01 0.02 0.02 0.02 0.02 0.03 0.02 0.02 0.02 0.03 0.04 0.05 0.05 0.04 0.03 0.02 0.01 0.00 0.00 0.01 0.02 0.03 0.03 0.02 0.01
0.00 0.00 0.00 0.00 0.01 0.01 0.01 0.02 0.02 0.02 0.02 0.04 0.05 0.05 0.04 0.02 0.02 0.02 0.01 0.01 0.01 0.01 0.01 0.02 0.03 0.02 0.02 0.02 0.03 0.04 0.05 0.05 0.04 0.03 0.02 0.01 0.00 0.01 0.02 0.03 0.03 0.04 0.03
0.00 0.00 0.00 0.00 0.00 0.00 0.00 0.01 0.01 0.02 0.02 0.02 0.03 0.04 0.05 0.05 0.04 0.03 0.03 0.01 0.01 0.00 0.01 0.01 0.02 0.03 0.02 0.02 0.02 0.03 0.04 0.05 0.06 0.06 0.04 0.03 0.02 0.01 0.01 0.02 0.03 0.04 0.05
0.00 0.00 0.00 0.00 0.00 0.00 0.00 0.00 0.01 0.01 0.01 0.01 0.01 0.01 0.02 0.04 0.06 0.05 0.05 0.03 0.02 0.01 0.01 0.02 0.02 0.02 0.02 0.02 0.02 0.02 0.04 0.06 0.07 0.08 0.07 0.06 0.04 0.04 0.03 0.02 0.03 0.04 0.05
0.00 0.00 0.00 0.00 0.00 0.00 0.00 0.00 0.00 0.01 0.01 0.01 0.02 0.01 0.01 0.01 0.02 0.03 0.03 0.04 0.03 0.02 0.02 0.02 0.02 0.01 0.01 0.02 0.02 0.02 0.03 0.05 0.08 0.10 0.12 0.12 0.10 0.07 0.06 0.05 0.04 0.05 0.06
0.00 0.00 0.00 0.00 0.00 0.00 0.00 0.00 0.00 0.00 0.00 0.00 0.01 0.01 0.01 0.01 0.01 0.01 0.01 0.02 0.03 0.03 0.03 0.02 0.02 0.02 0.02 0.02 0.03 0.04 0.04 0.05 0.06 0.08 0.10 0.13 0.16 0.16 0.13 0.12 0.09 0.06 0.05
0.00 0.00 0.00 0.00 0.00 0.00 0.00 0.00 0.00 0.00 0.00 0.00 0.00 0.00 0.00 0.00 0.00 0.01 0.01 0.01 0.02 0.03 0.03 0.03 0.03 0.03 0.03 0.04 0.04 0.05 0.05 0.06 0.06 0.07 0.08 0.08 0.08 0.09 0.10 0.11 0.11 0.10 0.08
0.00 0.00 0.00 0.00 0.00 0.00 0.00 0.00 0.00 0.00 0.00 0.00 0.00 0.00 0.00 0.00 0.00 0.00 0.01 0.01 0.01 0.02 0.03 0.03 0.05 0.05 0.05 0.06 0.07 0.06 0.05 0.06 0.06 0.06 0.07 0.08 0.08 0.07 0.06 0.06 0.06 0.07 0.09
0.00 0.00 0.00 0.00 0.00 0.00 0.00 0.00 0.00 0.00 0.00 0.00 0.00 0.00 0.00 0.00 0.00 0.00 0.00 0.01 0.01 0.01 0.02 0.03 0.03 0.05 0.07 0.09 0.10 0.11 0.09 0.07 0.06 0.05 0.06 0.06 0.08 0.09 0.09 0.08 0.08 0.08 0.07
0.00 0.00 0.00 0.00 0.00 0.00 0.00 0.00 0.00 0.00 0.00 0.00 0.00 0.00 0.00 0.00 0.00 0.00 0.00 0.01 0.01 0.01 0.02 0.03 0.03 0.04 0.05 0.08 0.11 0.14 0.13 0.10 0.08 0.06 0.06 0.06 0.08 0.10 0.10 0.10 0.10 0.09 0.07
0.00 0.00 0.00 0.00 0.00 0.00 0.00 0.00 0.00 0.00 0.00 0.00 0.00 0.00 0.00 0.00 0.00 0.00 0.01 0.01 0.01 0.01 0.01 0.02 0.03 0.03 0.04 0.06 0.09 0.12 0.14 0.14 0.13 0.11 0.09 0.08 0.07 0.07 0.08 0.09 0.09 0.10 0.10
0.00 0.00 0.00 0.00 0.00 0.00 0.00 0.00 0.00 0.00 0.00 0.00 0.00 0.00 0.00 0.00 0.00 0.00 0.01 0.01 0.01 0.01 0.01 0.02 0.02 0.03 0.03 0.04 0.06 0.07 0.08 0.08 0.09 0.08 0.08 0.08 0.08 0.06 0.06 0.06 0.07 0.08 0.09
0.00 0.00 0.00 0.00 0.00 0.00 0.00 0.00 0.00 0.00 0.00 0.00 0.00 0.00 0.00 0.00 0.00 0.01 0.01 0.02 0.02 0.02 0.01 0.01 0.01 0.02 0.02 0.03 0.04 0.05 0.06 0.06 0.07 0.07 0.07 0.08 0.08 0.07 0.06 0.05 0.05 0.05 0.05
MSLP
1018.91 1018.49 1018.03 1017.60 1017.26 1017.05 1016.94 1016.92 1016.93 1016.93 1016.90 1016.84 1016.76 1016.68 1016.64 1016.64 1016.69 1016.77 1016.83 1016.87 1016.85 1016.77 1016.66 1016.52 1016.40 1016.32 1016.29 1016.29 1016.32 1016.36 1016.37 1016.36 1016.30 1016.22 1016.13 1016.05 1015.98 1015.92 1015.88 1015.85 1015.80 1015.74 1015.67
1019.26 1018.82 1018.33 1017.88 1017.53 1017.30 1017.18 1017.13 1017.12 1017.10 1017.05 1016.96 1016.86 1016.76 1016.70 1016.69 1016.72 1016.77 1016.83 1016.86 1016.84 1016.77 1016.67 1016.55 1016.45 1016.38 1016.36 1016.37 1016.39 1016.41 1016.41 1016.37 1016.31 1016.22 1016.14 1016.07 1016.02 1016.00 1015.99 1015.98 1015.96 1015.92 1015.86
1019.63 1019.18 1018.68 1018.22 1017.85 1017.60 1017.45 1017.39 1017.36 1017.32 1017.25 1017.14 1017.01 1016.90 1016.81 1016.76 1016.76 1016.78 1016.81 1016.81 1016.78 1016.71 1016.62 1016.52 1016.43 1016.38 1016.37 1016.38 1016.40 1016.40 1016.38 1016.33 1016.25 1016.16 1016.09 1016.03 1016.01 1016.01 1016.03 1016.04 1016.04 1016.02 1015.98
1020.01 1019.55 1019.05 1018.59 1018.21 1017.95 1017.78 1017.69 1017.64 1017.57 1017.48 1017.36 1017.21 1017.07 1016.94 1016.86 1016.82 1016.79 1016.77 1016.74 1016.68 1016.60 1016.51 1016.43 1016.36 1016.33 1016.33 1016.34 1016.35 1016.35 1016.31 1016.24 1016.15 1016.06 1015.99 1015.95 1015.95 1015.97 1016.01 1016.04 1016.05 1016.04 1016.01
1020.36 1019.92 1019.44 1018.99 1018.62 1018.34 1018.16 1018.04 1017.95 1017.86 1017.73 1017.58 1017.41 1017.24 1017.09 1016.96 1016.87 1016.80 1016.73 1016.66 1016.57 1016.47 1016.38 1016.30 1016.25 1016.24 1016.25 1016.26 1016.27 1016.25 1016.20 1016.12 1016.03 1015.94 1015.87 1015.84 1015.85 1015.89 1015.93 1015.98 1016.01 1016.01 1015.98
1020.66 1020.26 1019.82 1019.40 1019.04 1018.77 1018.56 1018.41 1018.27 1018.13 1017.97 1017.79 1017.59 1017.39 1017.21 1017.05 1016.92 1016.80 1016.68 1016.57 1016.45 1016.33 1016.23 1016.16 1016.12 1016.11 1016.13 1016.15 1016.15 1016.12 1016.06 1015.98 1015.88 1015.79 1015.73 1015.71 1015.72 1015.77 1015.83 1015.88 1015.92 1015.93 1015.92
1020.91 1020.57 1020.18 1019.81 1019.48 1019.19 1018.96 1018.77 1018.58 1018.39 1018.18 1017.96 1017.73 1017.51 1017.31 1017.12 1016.96 1016.80 1016.64 1016.49 1016.34 1016.20 1016.08 1016.01 1015.97 1015.96 1015.98 1015.99 1015.99 1015.95 1015.88 1015.79 1015.69 1015.61 1015.55 1015.54 1015.57 1015.63 1015.69 1015.76 1015.80 1015.83 1015.84
1021.11 1020.84 1020.52 1020.20 1019.89 1019.61 1019.35 1019.11 1018.86 1018.62 1018.36 1018.10 1017.85 1017.61 1017.39 1017.18 1016.99 1016.81 1016.62 1016.43 1016.25 1016.08 1015.95 1015.85 1015.80 1015.78 1015.79 1015.79 1015.77 1015.72 1015.64 1015.55 1015.45 1015.37 1015.33 1015.33 1015.37 1015.44 1015.52 1015.60 1015.66 1015.71 1015.74
1021.28 1021.08 1020.83 1020.56 1020.28 1020.00 1019.71 1019.42 1019.13 1018.83 1018.53 1018.24 1017.96 1017.71 1017.48 1017.26 1017.05 1016.84 1016.62 1016.40 1016.18 1015.98 1015.82 1015.70 1015.62 1015.58 1015.55 1015.52 1015.48 1015.41 1015.32 1015.22 1015.12 1015.05 1015.02 1015.04 1015.10 1015.19 1015.29 1015.39 1015.47 1015.54 1015.60
1021.46 1021.31 1021.12 1020.90 1020.64 1020.36 1020.05 1019.72 1019.39 1019.04 1018.71 1018.40 1018.12 1017.86 1017.62 1017.39 1017.15 1016.91 1016.66 1016.40 1016.14 1015.90 1015.70 1015.54 1015.42 1015.34 1015.27 1015.20 1015.12 1015.02 1014.91 1014.79 1014.69 1014.64 1014.62 1014.66 1014.75 1014.86 1014.98 1015.10 1015.20 1015.30 1015.38
1021.67 1021.56 1021.41 1021.21 1020.97 1020.68 1020.36 1020.01 1019.65 1019.29 1018.95 1018.63 1018.34 1018.08 1017.83 1017.58 1017.32 1017.05 1016.75 1016.44 1016.14 1015.85 1015.60 1015.39 1015.22 1015.08 1014.96 1014.84 1014.70 1014.56 1014.41 1014.28 1014.18 1014.13 1014.13 1014.19 1014.30 1014.43 1014.57 1014.71 1014.84 1014.95 1015.05
1021.92 1021.83 1021.70 1021.51 1021.27 1020.98 1020.65 1020.29 1019.93 1019.58 1019.24 1018.94 1018.66 1018.39 1018.13 1017.86 1017.57 1017.25 1016.90 1016.53 1016.17 1015.84 1015.53 1015.27 1015.04 1014.83 1014.65 1014.46 1014.26 1014.06 1013.87 1013.71 1013.60 1013.55 1013.56 1013.64 1013.76 1013.91 1014.07 1014.22 1014.35 1014.47 1014.59
1022.22 1022.13 1021.99 1021.79 1021.54 1021.24 1020.92 1020.57 1020.23 1019.90 1019.60 1019.32 1019.06 1018.80 1018.53 1018.23 1017.89 1017.51 1017.10 1016.68 1016.26 1015.87 1015.51 1015.18 1014.89 1014.62 1014.36 1014.10 1013.83 1013.57 1013.33 1013.13 1013.00 1012.94 1012.96 1013.05 1013.18 1013.34 1013.50 1013.64 1013.77 1013.88 1013.99
1022.56 1022.44 1022.27 1022.05 1021.78 1021.48 1021.16 1020.84 1020.53 1020.25 1019.99 1019.75 1019.51 1019.26 1018.98 1018.65 1018.27 1017.83 1017.37 1016.89 1016.42 1015.97 1015.56 1015.18 1014.82 1014.48 1014.15 1013.80 1013.46 1013.13 1012.83 1012.59 1012.43 1012.36 1012.38 1012.47 1012.60 1012.76 1012.90 1013.03 1013.13 1013.21 1013.30
1022.89 1022.75 1022.55 1022.29 1022.00 1021.69 1021.38 1021.09 1020.82 1020.59 1020.39 1020.20 1019.99 1019.76 1019.46 1019.11 1018.68 1018.20 1017.69 1017.16 1016.64 1016.15 1015.69 1015.26 1014.85 1014.45 1014.03 1013.61 1013.18 1012.78 1012.42 1012.13 1011.94 1011.86 1011.87 1011.95 1012.08 1012.22 1012.35 1012.44 1012.51 1012.55 1012.60
1023.20 1023.03 1022.79 1022.50 1022.19 1021.87 1021.57 1021.31 1021.09 1020.92 1020.77 1020.63 1020.46 1020.24 1019.95 1019.57 1019.12 1018.61 1018.06 1017.51 1016.96 1016.44 1015.94 1015.47 1015.01 1014.53 1014.04 1013.54 1013.04 1012.56 1012.14 1011.81 1011.59 1011.48 1011.48 1011.56 1011.68 1011.80 1011.90 1011.97 1011.99 1011.98 1011.98
1023.46 1023.27 1023.01 1022.69 1022.35 1022.02 1021.74 1021.50 1021.33 1021.21 1021.12 1021.02 1020.89 1020.69 1020.41 1020.03 1019.58 1019.05 1018.49 1017.93 1017.37 1016.83 1016.31 1015.80 1015.28 1014.75 1014.19 1013.61 1013.03 1012.49 1012.01 1011.64 1011.39 1011.27 1011.25 1011.32 1011.43 1011.54 1011.62 1011.66 1011.64 1011.60 1011.55
1023.65 1023.47 1023.19 1022.86 1022.51 1022.18 1021.90 1021.69 1021.56 1021.48 1021.43 1021.38 1021.28 1021.11 1020.85 1020.49 1020.04 1019.53 1018.98 1018.42 1017.87 1017.32 1016.79 1016.25 1015.69 1015.09 1014.47 1013.82 1013.18 1012.58 1012.06 1011.65 1011.37 1011.23 1011.21 1011.27 1011.37 1011.48 1011.54 1011.56 1011.52 1011.45 1011.37
1023.77 1023.61 1023.35 1023.02 1022.67 1022.35 1022.09 1021.90 1021.79 1021.75 1021.73 1021.71 1021.64 1021.50 1021.27 1020.94 1020.53 1020.05 1019.53 1018.99 1018.45 1017.92 1017.37 1016.80 1016.21 1015.56 1014.88 1014.18 1013.49 1012.85 1012.30 1011.86 1011.57 1011.41 1011.38 1011.43 1011.52 1011.61 1011.67 1011.67 1011.63 1011.55 1011.47
1023.81 1023.70 1023.48 1023.18 1022.86 1022.56 1022.31 1022.14 1022.06 1022.03 1022.04 1022.04 1022.00 1021.89 1021.69 1021.40 1021.03 1020.60 1020.12 1019.63 1019.11 1018.59 1018.04 1017.46 1016.84 1016.16 1015.44 1014.71 1013.99 1013.33 1012.75 1012.30 1011.99 1011.81 1011.75 1011.78 1011.85 1011.93 1011.98 1011.99 1011.95 1011.89 1011.81
1023.81 1023.77 1023.60 1023.35 1023.07 1022.80 1022.58 1022.44 1022.37 1022.35 1022.37 1022.39 1022.36 1022.28 1022.11 1021.87 1021.55 1021.17 1020.75 1020.30 1019.82 1019.32 1018.78 1018.20 1017.56 1016.87 1016.14 1015.40 1014.68 1014.01 1013.43 1012.97 1012.64 1012.44 1012.35 1012.33 1012.36 1012.40 1012.44 1012.45 1012.43 1012.38 1012.34
1023.76 1023.80 1023.71 1023.52 1023.30 1023.08 1022.90 1022.78 1022.73 1022.72 1022.74 1022.75 1022.74 1022.67 1022.53 1022.33 1022.07 1021.75 1021.39 1020.98 1020.55 1020.07 1019.55 1018.98 1018.35 1017.68 1016.96 1016.25 1015.55 1014.90 1014.34 1013.88 1013.53 1013.29 1013.14 1013.06 1013.02 1013.01 1013.00 1012.99 1012.98 1012.96 1012.95
1023.67 1023.79 1023.79 1023.68 1023.53 1023.38 1023.25 1023.16 1023.11 1023.10 1023.11 1023.12 1023.10 1023.04 1022.93 1022.77 1022.55 1022.29 1021.98 1021.63 1021.24 1020.81 1020.32 1019.78 1019.18 1018.55 1017.88 1017.22 1016.58 1015.98 1015.45 1015.00 1014.63 1014.33 1014.11 1013.94 1013.80 1013.70 1013.63 1013.57 1013.55 1013.54 1013.56
1023.54 1023.74 1023.81 1023.80 1023.73 1023.65 1023.57 1023.51 1023.48 1023.47 1023.47 1023.46 1023.43 1023.37 1023.28 1023.14 1022.97 1022.76 1022.50 1022.21 1021.86 1021.47 1021.03 1020.53 1020.00 1019.43 1018.84 1018.26 1017.70 1017.17 1016.69 1016.25 1015.86 1015.51 1015.20 1014.91 1014.66 1014.44 1014.27 1014.14 1014.07 1014.06 1014.08
1023.34 1023.61 1023.76 1023.83 1023.85 1023.84 1023.81 1023.79 1023.77 1023.76 1023.75 1023.72 1023.68 1023.62 1023.53 1023.42 1023.28 1023.11 1022.91 1022.66 1022.37 1022.03 1021.64 1021.20 1020.74 1020.25 1019.76 1019.28 1018.82 1018.38 1017.95 1017.54 1017.14 1016.74 1016.33 1015.93 1015.54 1015.19 1014.90 1014.68 1014.54 1014.49 1014.49
1023.05 1023.37 1023.60 1023.75 1023.84 1023.90 1023.93 1023.95 1023.95 1023.94 1023.91 1023.87 1023.81 1023.74 1023.66 1023.57 1023.47 1023.34 1023.18 1022.98 1022.74 1022.44 1022.11 1021.74 1021.34 1020.94 1020.56 1020.18 1019.83 1019.48 1019.13 1018.76 1018.35 1017.90 1017.42 1016.91 1016.40 1015.92 1015.51 1015.18 1014.96 1014.84 1014.80
Thickness
5739 5740 5738 5740 5741 5741 5741 5741 5741 5741 5741 5741 5741 5740 5740 5739 5739 5738 5738 5737 5737 5736 5736 5735 5735 5734 5734 5733 5733 5732 5732 5731 5730 5730 5730 5729 5729 5729 5729 5729 5730 5731 5728
5736 5736 5734 5736 5737 5737 5738 5738 5737 5737 5738 5738 5737 5737 5737 5736 5736 5736 5735 5735 5735 5734 5734 5733 5733 5732 5731 5730 5730 5729 5728 5727 5727 5726 5726 5726 5726 5725 5725 5725 5726 5727 5725
5732 5732 5731 5731 5733 5733 5734 5734 5734 5734 5734 5734 5734 5734 5734 5733 5733 5733 5733 5732 5732 5732 5731 5731 5730 5729 5728 5727 5727 5726 5725 5724 5723 5723 5724 5726 5724 5722 5722 5721 5721 5721 5721
5727 5727 5727 5726 5728 5729 5729 5730 5730 5730 5730 5731 5730 5730 5730 5730 5730 5730 5729 5729 5729 5728 5728 5728 5727 5726 5725 5724 5723 5723 5722 5721 5720 5720 5723 5724 5723 5719 5718 5718 5718 5718 5717
5722 5722 5722 5721 5723 5724 5724 5725 5726 5726 5726 5727 5727 5727 5727 5727 5727 5727 5726 5726 5726 5725 5725 5724 5724 5723 5722 5721 5720 5719 5718 5717 5717 5717 5720 5720 5719 5716 5715 5714 5714 5714 5713
5716 5716 5716 5716 5717 5718 5719 5720 5721 5721 5722 5722 5723 5723 5723 5723 5723 5723 5723 5722 5722 5722 5721 5721 5720 5719 5719 5718 5717 5716 5715 5714 5714 5716 5716 5716 5716 5713 5711 5711 5710 5710 5709
5710 5710 5710 5710 5711 5712 5714 5715 5716 5716 5717 5717 5718 5718 5719 5719 5719 5719 5719 5719 5718 5718 5717 5717 5717 5716 5715 5714 5714 5713 5712 5711 5712 5713 5713 5712 5711 5708 5708 5707 5707 5706 5705
5703 5704 5704 5704 5706 5707 5708 5709 5710 5711 5712 5712 5713 5713 5714 5714 5715 5715 5715 5715 5714 5714 5714 5713 5713 5712 5712 5711 5710 5709 5708 5707 5708 5709 5709 5709 5706 5704 5704 5703 5703 5702 5701
5695 5697 5698 5700 5701 5702 5703 5704 5705 5706 5706 5707 5708 5708 5709 5709 5710 5710 5711 5711 5710 5710 5710 5709 5709 5709 5708 5707 5706 5705 5704 5703 5705 5706 5706 5705 5703 5701 5700 5699 5698 5698 5697
5688 5690 5691 5693 5695 5696 5698 5698 5699 5700 5701 5702 5702 5703 5704 5704 5705 5706 5706 5706 5706 5705 5705 5705 5705 5704 5704 5703 5702 5701 5700 5699 5701 5702 5702 5701 5698 5697 5696 5696 5695 5694 5693
5681 5683 5684 5686 5688 5690 5692 5693 5694 5695 5695 5696 5697 5697 5698 5700 5701 5701 5701 5701 5700 5700 5700 5700 5700 5699 5699 5699 5698 5697 5696 5697 5699 5699 5698 5697 5694 5693 5692 5692 5691 5690 5689
5673 5675 5677 5679 5681 5683 5685 5687 5688 5689 5690 5691 5691 5691 5692 5693 5694 5694 5694 5694 5695 5695 5695 5695 5694 5694 5694 5696 5695 5693 5693 5694 5695 5695 5695 5692 5690 5688 5688 5688 5687 5686 5685
5665 5667 5669 5671 5673 5675 5678 5680 5681 5682 5683 5684 5684 5684 5685 5686 5687 5688 5688 5689 5689 5689 5690 5690 5690 5691 5691 5691 5691 5691 5691 5690 5691 5691 5691 5688 5685 5684 5684 5683 5682 5682 5681
5657 5659 5661 5663 5665 5667 5669 5671 5673 5675 5675 5676 5676 5677 5677 5678 5679 5680 5681 5681 5682 5682 5683 5684 5684 5685 5685 5686 5686 5686 5686 5685 5685 5686 5686 5683 5681 5680 5679 5679 5678 5677 5677
5650 5651 5653 5655 5658 5660 5661 5663 5665 5666 5667 5668 5668 5669 5669 5670 5671 5672 5673 5673 5674 5674 5675 5676 5677 5678 5679 5679 5679 5679 5680 5680 5680 5679 5679 5678 5676 5675 5674 5673 5673 5673 5672
5642 5644 5646 5648 5650 5652 5654 5655 5657 5658 5659 5660 5660 5660 5661 5661 5662 5663 5664 5664 5665 5665 5666 5667 5668 5669 5670 5671 5672 5672 5672 5673 5673 5673 5673 5673 5671 5670 5668 5668 5668 5668 5667
5635 5636 5638 5640 5642 5644 5646 5647 5649 5650 5651 5652 5652 5652 5652 5653 5653 5654 5655 5655 5656 5656 5657 5658 5659 5659 5660 5661 5662 5663 5665 5666 5666 5666 5666 5666 5665 5664 5662 5661 5661 5661 5662
5628 5629 5630 5632 5634 5636 5638 5639 5641 5642 5643 5643 5644 5644 5644 5644 5645 5646 5646 5646 5646 5646 5647 5648 5649 5649 5650 5651 5653 5655 5656 5657 5657 5658 5658 5658 5657 5657 5656 5655 5654 5654 5654
5620 5621 5622 5624 5626 5628 5630 5631 5633 5634 5634 5635 5635 5635 5635 5636 5636 5637 5637 5636 5636 5637 5637 5638 5639 5639 5640 5642 5643 5645 5647 5648 5649 5649 5650 5650 5649 5648 5649 5648 5647 5647 5647
5612 5613 5615 5617 5618 5620 5623 5625 5626 5626 5626 5626 5626 5625 5626 5626 5626 5627 5627 5627 5627 5627 5627 5627 5628 5629 5630 5631 5633 5636 5638 5640 5640 5640 5640 5640 5640 5639 5639 5639 5639 5639 5638
5605 5606 5608 5609 5610 5612 5614 5616 5618 5618 5617 5617 5616 5615 5615 5616 5616 5616 5617 5617 5616 5616 5616 5616 5617 5619 5620 5620 5622 5625 5629 5631 5632 5631 5630 5630 5630 5629 5629 5629 5630 5630 5630
5599 5599 5600 5601 5602 5603 5604 5605 5606 5607 5607 5606 5605 5605 5605 5605 5605 5605 5605 5606 5605 5605 5606 5605 5605 5607 5609 5609 5609 5611 5616 5620 5620 5620 5619 5618 5618 5618 5618 5618 5619 5619 5620
5593 5593 5593 5593 5594 5594 5595 5596 5598 5599 5599 5599 5597 5596 5595 5595 5594 5594 5595 5595 5595 5594 5595 5595 5594 5595 5596 5597 5597 5597 5601 5605 5607 5609 5608 5607 5606 5607 5607 5607 5607 5607 5607
5587 5585 5585 5585 5586 5586 5587 5588 5590 5591 5591 5589 5587 5586 5585 5584 5584 5584 5584 5584 5584 5583 5583 5583 5583 5583 5584 5585 5585 5585 5586 5588 5590 5595 5597 5596 5595 5594 5595 5595 5594 5594 5594
5579 5578 5577 5578 5578 5578 5578 5579 5580 5580 5580 5579 5578 5577 5577 5576 5575 5574 5574 5574 5573 5573 5572 5572 5572 5572 5573 5573 5573 5573 5575 5575 5576 5578 5582 5583 5582 5582 5582 5582 5581 5581 5581
5572 5571 5570 5570 5570 5570 5570 5570 5571 5571 5570 5570 5570 5569 5568 5567 5565 5564 5564 5564 5563 5562 5561 5561 5561 5561 5561 5561 5562 5562 5562 5563 5563 5563 5566 5569 5570 5570 5569 5569 5569 5568 5567